Regional Weather Roundup
Issued by NWS

Home | Current Version | Previous Version | Graphics & Text | Print | Product List | Glossary On
Versions: 1 2 3 4 5 6 7 8 9 10 11 12 13 14 15 16 17 18 19 20 21 22 23 24 25 26 27 28 29 30 31 32 33 34 35 36 37 38 39 40 41 42 43 44 45 46 47 48 49 50
000
ASUS43 KBIS 210802
RWRND

NORTH DAKOTA REGIONAL WEATHER ROUNDUP
NATIONAL WEATHER SERVICE BISMARCK ND
300 AM CDT FRI JUL 21 2017

NOTE: "FAIR" INDICATES FEW OR NO CLOUDS BELOW 12,000 FEET WITH NO
SIGNIFICANT WEATHER AND/OR OBSTRUCTIONS TO VISIBILITY.


NDZ001>003-009>011-017-210900-
NORTHWEST NORTH DAKOTA

CITY           SKY/WX    TMP DP  RH WIND       PRES   REMARKS
WILLISTON      CLOUDY    72  58  61 SE5       29.77F
MINOT          CLOUDY    68  62  81 SE5       29.79F
MINOT AFB      CLOUDY    65  62  89 S7        29.78F
$$

NDZ018>021-031>035-040>046-210900-
SOUTHWEST NORTH DAKOTA

CITY           SKY/WX    TMP DP  RH WIND       PRES   REMARKS
BISMARCK       CLOUDY    72  62  71 S8        29.81F
DICKINSON      MOCLDY    68  62  81 S14       29.79F
GARRISON         N/A     67  57  70 E8        29.80F
HETTINGER ARPT MOCLDY    65  60  84 W6        29.87R
$$

NDZ004>008-012>016-024-026-027-054-210900-
NORTHEAST NORTH DAKOTA

CITY           SKY/WX    TMP DP  RH WIND       PRES   REMARKS
GRAND FORKS    MOCLDY    71  65  81 SE7       29.86F
GRND FRKS AFB  CLOUDY    68  64  85 E6        29.86F
DEVILS LAKE    CLOUDY    77  66  68 S13G22    29.85S
$$

NDZ022-023-025-028>030-036>039-047>053-210900-
SOUTHEAST NORTH DAKOTA

CITY           SKY/WX    TMP DP  RH WIND       PRES   REMARKS
FARGO          CLOUDY    76  68  76 SE8       29.87S
JAMESTOWN      CLOUDY    72  64  76 SE10      29.84F
$$





USA.gov is the U.S. government's official web portal to all federal, state and local government web resources and services.